Hourly Data Report for July 09, 2021

CAMPBELL RIVER A
BRITISH COLUMBIA
Current Station Operator: NAVCAN

49°57'07.000" N
125°16'23.000" W
108.80 m
1021270
YBL

Download Data

Hourly Data (July 2021)
Hourly Data Report for July 9, 2021
TIME
LST
Temp Definition
°C
Dew Point Definition
°C
Rel Hum Definition
%
Precip. Amount Definition
mm

Wind Dir Definition
10's deg

Wind Spd Definition
km/h
Visibility Definition
km
Stn Press Definition
kPa
Hmdx Definition


Wind Chill Definition


Weather Definition


00:00 13.3 11.4 88 LegendMM 31 5 LegendMM 100.54     LegendNANA
01:00 12.6 11.4 92 LegendMM 29 4 LegendMM 100.54     LegendNANA
02:00 12.8 10.6 86 LegendMM 29 7 LegendMM 100.59     LegendNANA
03:00 11.0 10.3 95 LegendMM 28 8 LegendMM 100.63     LegendNANA
04:00 13.0 10.6 85 LegendMM 29 10 LegendMM 100.68     LegendNANA
05:00 12.0 10.7 92 LegendMM 29 7 LegendMM 100.72     LegendNANA
06:00 13.1 11.3 89 LegendMM 33 7 LegendMM 100.76     LegendNANA
07:00 15.4 11.9 79 LegendMM 31 9 LegendMM 100.78     LegendNANA
08:00 18.0 12.0 67 LegendMM 29 3 LegendMM 100.78     LegendNANA
09:00 19.8 12.8 64 LegendMM 6 6 LegendMM 100.78     LegendNANA
10:00 20.6 13.3 62 LegendMM 6 10 LegendMM 100.77     LegendNANA
11:00 22.1 13.5 57 LegendMM 9 13 LegendMM 100.78 25   LegendNANA
12:00 23.8 12.8 50 LegendMM 11 12 LegendMM 100.75 26   LegendNANA
13:00 24.2 12.4 47 LegendMM 7 10 LegendMM 100.71 27   LegendNANA
14:00 25.3 12.1 43 LegendMM 7 14 LegendMM 100.64 28   LegendNANA
15:00 25.8 12.7 43 LegendMM 11 7 LegendMM 100.60 28   LegendNANA
16:00 26.4 12.3 41 LegendMM 11 8 LegendMM 100.52 29   LegendNANA
17:00 26.6 13.5 44 LegendMM 9 8 LegendMM 100.46 30   LegendNANA
18:00 26.8 13.5 43 LegendMM 9 5 LegendMM 100.39 30   LegendNANA
19:00 25.0 16.2 58 LegendMM 16 1 LegendMM 100.38 30   LegendNANA
20:00 21.3 16.1 72 LegendMM 14 3 LegendMM 100.38 26   LegendNANA
21:00 18.7 16.0 84 LegendMM 32 10 LegendMM 100.42     LegendNANA
22:00 18.8 14.1 74 LegendMM 29 9 LegendMM 100.47     LegendNANA
23:00 18.2 12.0 67 LegendMM 29 9 LegendMM 100.45     LegendNANA

Notes on Data Quality.

Legend

  • E = Estimated
  • M = Missing
  • NA = Not Available*
  • [empty] = Indicates an unobserved value
Date modified: